TIME,DELAY(SENSOR),PRES,OXYGEN,RAWTEMP,T(OPTODE),TCPHASE,FLUOR,BETA(BETA700),BETA(BETA412),BETA(BETA440),CDOM,C(CSC),ED(ED411.90),ED(ED443.80),ED(ED489.40),ED(ED554.70),LU(LU412.20),LU(LU443.80),LU(LU489.40),LU(LU555.00),COMP,TILTX,TILTY,CHECK
1369432163,5806,861.3499755859375000,157.0505065917968800,369.7799987792969000,11.5220499038696290,38.7171897888183600,52,103,97,80,79,10442,2146959744,2147517769,2147285586,2147486528,2147083072,2146934701,2147689088,2147124882,450,-1,8,27912
1369435759,5805,993.3200073242188000,149.9954071044922000,470.9758911132812500,8.4272327423095700,40.9300804138183600,53,126,102,83,81,10419,2146960384,2147518326,2147287972,2147506230,2147082706,2146927798,2147713353,2147120603,3123,-1,8,14697
1369439359,5805,1046.2800292968750000,141.2541961669922000,489.0107116699219000,7.8700280189514160,41.9533386230468750,53,124,102,84,80,10411,2146959890,2147515666,2147293842,2147508425,2147085970,2146921499,2147715392,2147122468,133,-1,8,14810
1369442959,5806,1046.1199951171875000,154.3540954589843800,490.4212036132812500,7.8263630867004395,40.9112281799316400,54,146,103,84,80,10408,2146958656,2147522413,2147296073,2147508827,2147084544,2146926665,2147717065,2147117577,91,-1,8,10275
1369446559,5807,1047.5799560546875000,148.7613983154297000,490.6300964355469000,7.8198962211608890,41.3602905273437500,53,131,101,81,81,10413,2146961124,2147518537,2147293028,2147507995,2147085284,2146925970,2147716589,2147121161,17,-1,8,54440
1369450159,5807,1043.9399414062500000,147.8912963867187500,490.8352966308594000,7.8135418891906740,41.4345512390136700,53,131,101,85,79,10403,2146961691,2147523145,2147292754,2147510765,2147084022,2146920950,2147713801,2147122660,3017,-1,8,2629
1369453759,5805,1041.5699462890625000,145.1811981201172000,488.4180908203125000,7.8883709907531740,41.6159706115722660,53,138,103,83,81,10405,2146961243,2147519771,2147291721,2147508973,2147082962,2146925696,2147719561,2147121325,175,0,8,3151
1369457359,5808,1043.0799560546875000,142.0773010253906200,488.7560119628906000,7.8779120445251465,41.8785400390625000,53,125,101,83,81,10384,2146960310,2147517970,2147294180,2147508937,2147084205,2146925385,2147719881,2147123209,171,-1,8,30723
1369460959,5802,1027.0600585937500000,150.7055969238281200,489.6825866699219000,7.8492298126220700,41.1878013610839840,53,137,105,85,80,10357,2146958573,2147521865,2147291858,2147509668,2147084434,2146923401,2147717248,2147121435,3448,-1,8,40051
1369464559,5805,1031.7800292968750000,149.4205017089843800,488.7959899902344000,7.8766760826110840,41.2763290405273440,53,206,104,83,81,10361,2146959122,2147520192,2147295341,2147512594,2147083227,2146924187,2147715382,2147123090,3140,-1,8,27059
1369468159,5807,1029.6500244140625000,147.3424987792968800,489.6687927246094000,7.8496580123901370,41.4589004516601560,53,134,102,84,82,10353,2146961179,2147522057,2147293915,2147510482,2147085193,2146925193,2147715657,2147119990,3421,-1,8,22801
1369471759,5804,1029.4000244140625000,127.1159973144531200,489.9318847656250000,7.8415141105651855,43.2058601379394500,53,130,103,85,81,10337,2146963008,2147515684,2147295890,2147512393,2147085275,2146924992,2147714176,2147123958,3540,-1,8,24736
1369475359,5804,1030.1899414062500000,147.1826019287109400,490.4028930664062500,7.8269319534301760,41.4837989807128900,53,157,106,91,81,10332,2146962898,2147518144,2147292589,2147512640,2147083520,2146920676,2147718454,2147121444,663,-1,8,26011
1369478959,5807,1029.2800292968750000,147.2102966308593800,490.6101989746094000,7.8205142021179200,41.4863586425781250,53,145,107,83,80,10325,2146959689,2147520100,2147293686,2147511954,2147083739,2146929965,2147720064,2147120658,625,-1,8,30945
1369482559,5808,1033.5899658203125000,152.1118011474609400,490.6203918457031000,7.8201971054077150,41.0918807983398440,53,124,110,86,80,10330,2146957184,2147521325,2147293156,2147512411,2147085522,2146920685,2147718921,2147121179,436,-1,8,43408
1369486159,5807,1032.9699707031250000,147.3565063476562500,490.6975097656250000,7.8178091049194340,41.4754905700683600,53,128,105,83,81,10329,2146957549,2147522139,2147295990,2147511414,2147083958,2146926665,2147714934,2147121261,450,0,8,11921
1369489759,5807,1033.9300537109375000,135.7313995361328000,490.3088073730469000,7.8298439979553220,42.4474411010742200,53,129,103,83,81,10324,2146960448,2147516699,2147292946,2147509915,2147086838,2146921691,2147718546,2147122048,3573,-1,8,10180
1369493359,5805,1005.4299926757812000,151.0368957519531200,485.9176940917969000,7.9657330513000490,41.0970497131347660,53,131,102,84,80,10323,2146959241,2147519478,2147292041,2147506706,2147084973,2146917238,2147710555,2147121024,3290,-1,8,51834
1369496959,5806,1001.9699707031250000,149.3220977783203000,485.5046081542969000,7.9785108566284180,41.2284088134765600,53,127,103,82,80,10320,2146959131,2147519844,2147291328,2147509394,2147085449,2146921572,2147712301,2147122102,2947,-1,8,44422
1369500559,5804,1000.4299926757812000,139.2402954101562500,486.6236877441406000,7.9438939094543460,42.0829391479492200,54,128,105,85,79,10318,2146961453,2147517494,2147294683,2147511369,2147084653,2146927488,2147715657,2147125120,183,-1,8,5415
1369504159,5805,1000.3099975585938000,135.9595031738281200,486.7080078125000000,7.9412841796875000,42.3672218322753900,52,122,102,88,79,10315,2146961408,2147520996,2147296502,2147509833,2147082724,2146927277,2147714724,2147120841,3423,-1,8,6139
1369507759,5804,1001.4400024414062000,143.9577941894531200,486.7427062988281000,7.9402108192443850,41.6876716613769500,53,136,103,86,79,10310,2146960164,2147520411,2147293696,2147508260,2147082953,2146926619,2147715392,2147120768,262,-1,8,56709
1369511359,5807,1003.4199829101562000,136.9331054687500000,486.9426879882812500,7.9340248107910160,42.2858886718750000,53,131,103,85,80,10300,2146960201,2147520978,2147295241,2147510473,2147084571,2146925988,2147713014,2147123593,188,-1,8,15731
1369514959,5804,1000.6300048828125000,138.4044952392578000,487.5499877929687500,7.9152350425720215,42.1691589355468750,54,135,102,82,81,10298,2146959853,2147521261,2147294290,2147508297,2147085577,2146918171,2147717668,2147124662,104,-1,8,17580
1369518559,5806,1001.5700073242188000,147.6970062255859400,487.5398864746094000,7.9155478477478030,41.3950500488281250,53,135,104,83,80,10298,2146957897,2147521133,2147292480,2147507904,2147086262,2146925558,2147714084,2147119296,2847,-1,8,55336
1369522159,5804,1000.5100097656250000,147.1815948486328000,488.0575866699219000,7.8995280265808105,41.4459915161132800,53,127,103,84,79,10291,2146956598,2147518902,2147295789,2147506422,2147085942,2146924708,2147716882,2147124187,2905,-1,8,39671
1369525759,5804,999.9099731445312000,153.7312927246093800,487.8682861328125000,7.9053859710693360,40.9165306091308600,53,226,102,86,80,10292,2146961837,2147518390,2147293961,2147508589,2147084882,2146928886,2147717147,2147119113,3266,-1,8,19973
1369529359,5805,1000.9500122070312000,152.7617034912109400,488.1781005859375000,7.8957967758178710,40.9982681274414060,53,133,104,83,80,10287,2146959341,2147519497,2147292370,2147510665,2147085366,2146930148,2147713024,2147121810,2832,-1,8,16275
1369532959,5807,1000.2899780273438000,154.9944000244140600,488.1325988769531000,7.8972048759460450,40.8218383789062500,53,126,102,83,80,10291,2146958390,2147519350,2147291446,2147511131,2147085110,2146926756,2147715968,2147121755,3230,-1,8,1566
1369536559,5805,998.2999877929688000,152.4730072021484400,488.2213134765625000,7.8944611549377440,41.0223693847656250,53,129,103,84,80,10287,2146958262,2147517641,2147292708,2147509376,2147084461,2146922660,2147717074,2147122121,3416,-1,8,13797
1369540159,5805,1000.5999755859375000,148.5467071533203000,489.1777038574219000,7.8648591041564940,41.3527717590332000,54,129,103,85,80,10284,2146961216,2147520484,2147291309,2147512292,2147084525,2146928667,2147716553,2147121984,324,-1,8,30185
1369543759,5806,1002.4699707031250000,153.5946960449218800,488.8223876953125000,7.8758568763732910,40.9447708129882800,52,129,103,84,80,10284,2146958683,2147518811,2147290596,2147511579,2147089645,2146922477,2147713856,2147124736,3345,-1,8,39057
1369547359,5807,1000.9400024414062000,151.1882934570312500,489.0180053710937500,7.8698019981384280,41.1380615234375000,54,163,103,84,80,10281,2146960795,2147520932,2147290413,2147507227,2147084452,2146922825,2147717842,2147122660,509,-1,8,48142
1369550959,5805,1003.5700073242188000,149.7955017089843800,488.4811096191406000,7.8864188194274900,41.2411804199218750,53,124,102,85,80,10269,2146959734,2147521362,2147294034,2147511853,2147083492,2146919506,2147718729,2147120292,3569,-1,8,962
1369554559,5805,1002.5999755859375000,153.9783020019531200,488.8714904785156000,7.8743381500244140,40.9145507812500000,53,135,102,82,80,10272,2146957549,2147518134,2147293211,2147508397,2147080109,2146925357,2147717028,2147123145,149,-1,8,22879
1369558159,5803,999.5499877929688000,154.4862060546875000,489.2593994140625000,7.8623318672180180,40.8814811706543000,53,132,104,91,80,10269,2146961243,2147518930,2147296118,2147505353,2147083739,2146926043,2147720091,2147123785,3256,-1,8,31903
1369561759,5806,999.0499877929688000,148.5603942871093800,490.0679016113281000,7.8373031616210940,41.3662605285644500,53,129,103,88,81,10270,2146961627,2147520850,2147294976,2147508425,2147082395,2146921179,2147720073,2147123108,3488,-1,8,21012
1369565359,5804,998.4099731445312000,146.4757995605468800,491.2550048828125000,7.8005452156066895,41.5568809509277340,53,133,107,86,80,10265,2146962011,2147520484,2147292992,2147511314,2147086948,2146921325,2147717732,2147121728,3192,-1,8,22557
1369568959,5806,996.1400146484375000,152.5829925537109400,491.8439025878906000,7.7823081016540530,41.0755004882812500,53,134,106,84,81,10268,2146960548,2147516982,2147292342,2147509814,2147084699,2146922569,2147712886,2147121225,2923,-1,8,28992
1369572559,5802,1000.0499877929688000,155.8585968017578000,491.5010986328125000,7.7929258346557620,40.8117218017578100,53,133,103,85,81,10260,2146963858,2147519168,2147294921,2147509833,2147086930,2146923236,2147718573,2147122560,3486,-1,8,13482
1369576159,5804,997.9400024414062000,148.9841003417968800,491.5336914062500000,7.7919178009033200,41.3575210571289060,53,129,102,124,81,10254,2146959798,2147520521,2147292288,2147512365,2147087936,2146924150,2147715766,2147124964,3354,-1,8,20194
1369576255,5804,9.5000000000000000,148.9750061035156200,491.4530944824219000,7.7944111824035645,41.3569793701171900,53,133,106,86,80,10291,2146961563,2147520786,2147293184,2147510738,2147087789,2146923931,2147712329,2147120786,3155,-1,8,43724
